TimeEDT,TemperatureF,Dew PointF,Humidity,Sea Level PressureIn,VisibilityMPH,Wind Direction,Wind SpeedMPH,Gust SpeedMPH,PrecipitationIn,Events,Conditions,WindDirDegrees,DateUTC
12:53 AM,62.1,52.0,70,30.00,10.0,SSE,4.6,-,N/A,,Partly Cloudy,160,2013-05-10 04:53:00
2:53 AM,61.0,52.0,72,29.97,10.0,South,5.8,-,N/A,,Clear,170,2013-05-10 06:53:00
3:53 AM,62.1,53.1,72,29.96,10.0,South,6.9,-,N/A,,Overcast,170,2013-05-10 07:53:00
4:53 AM,62.1,54.0,75,29.95,10.0,South,4.6,-,N/A,,Overcast,180,2013-05-10 08:53:00
5:53 AM,62.1,54.0,75,29.94,10.0,South,6.9,-,N/A,,Overcast,180,2013-05-10 09:53:00
6:53 AM,60.1,55.9,86,29.99,8.0,West,3.5,-,0.05,Rain,Light Rain,260,2013-05-10 10:53:00
8:35 AM,59.0,57.2,94,29.98,2.5,SSE,5.8,-,0.04,Rain,Light Rain,160,2013-05-10 12:35:00
8:43 AM,59.0,57.2,94,29.97,5.0,SE,5.8,-,0.04,Rain,Light Rain,140,2013-05-10 12:43:00
8:53 AM,60.1,57.9,93,29.96,4.0,SE,8.1,-,0.05,Rain,Light Rain,130,2013-05-10 12:53:00
9:53 AM,64.0,61.0,90,29.96,10.0,South,8.1,-,0.00,,Partly Cloudy,190,2013-05-10 13:53:00
10:53 AM,66.9,60.1,79,29.94,10.0,South,9.2,-,N/A,,Clear,180,2013-05-10 14:53:00
11:53 AM,70.0,60.1,71,29.93,10.0,South,10.4,-,N/A,,Clear,170,2013-05-10 15:53:00
1:53 PM,73.0,61.0,66,29.90,10.0,SW,8.1,-,N/A,,Scattered Clouds,230,2013-05-10 17:53:00
2:53 PM,73.9,59.0,59,29.86,10.0,SW,9.2,-,N/A,,Partly Cloudy,220,2013-05-10 18:53:00
3:25 PM,68.0,57.2,68,29.88,1.0,South,38.0,50.6,0.09,Rain,Light Rain,170,2013-05-10 19:25:00
3:27 PM,62.6,57.2,82,29.89,0.5,SSE,27.6,50.6,0.20,Rain,Rain,150,2013-05-10 19:27:00
3:36 PM,60.8,55.4,82,29.89,1.0,SSE,6.9,20.7,0.25,Rain,Light Rain,160,2013-05-10 19:36:00
3:44 PM,60.8,57.2,88,29.88,7.0,South,5.8,-,0.25,Rain,Light Rain,190,2013-05-10 19:44:00
3:53 PM,62.1,57.9,86,29.88,10.0,South,3.5,-,0.25,Rain,Light Rain,190,2013-05-10 19:53:00
4:53 PM,64.0,61.0,90,29.87,10.0,South,16.1,20.7,0.01,Rain,Light Rain,170,2013-05-10 20:53:00
4:59 PM,62.6,60.8,94,29.88,1.5,SSW,28.8,39.1,0.11,Rain,Rain,200,2013-05-10 20:59:00
5:03 PM,62.6,60.8,94,29.88,0.5,SSW,18.4,41.4,0.23,Fog-Rain,Heavy Rain,210,2013-05-10 21:03:00
5:07 PM,62.6,60.8,94,29.89,0.5,SSW,23.0,41.4,0.31,Fog-Rain,Heavy Rain,200,2013-05-10 21:07:00
5:16 PM,62.6,60.8,94,29.90,1.0,SW,17.3,41.4,0.37,Rain,Rain,230,2013-05-10 21:16:00
5:20 PM,62.6,60.8,94,29.90,3.0,WSW,11.5,36.8,0.38,Rain,Light Rain,240,2013-05-10 21:20:00
5:27 PM,62.6,60.8,94,29.90,8.0,WSW,10.4,19.6,0.38,Rain,Light Rain,240,2013-05-10 21:27:00
5:53 PM,62.1,60.1,93,29.89,10.0,South,12.7,-,0.38,,Overcast,190,2013-05-10 21:53:00
6:53 PM,61.0,59.0,93,29.86,10.0,South,11.5,-,0.00,,Overcast,180,2013-05-10 22:53:00
7:27 PM,60.8,59.0,94,29.86,10.0,South,9.2,-,N/A,,Overcast,190,2013-05-10 23:27:00
7:36 PM,60.8,59.0,94,29.86,10.0,South,10.4,-,0.00,Rain,Light Rain,180,2013-05-10 23:36:00
7:53 PM,61.0,59.0,93,29.85,7.0,South,13.8,-,0.00,Rain,Light Rain,180,2013-05-10 23:53:00
8:53 PM,61.0,57.9,90,29.84,5.0,SSW,11.5,-,0.09,Rain,Light Rain,210,2013-05-11 00:53:00
9:00 PM,60.8,59.0,94,29.84,5.0,SSW,10.4,-,0.01,Rain,Light Rain,210,2013-05-11 01:00:00
9:15 PM,60.8,59.0,94,29.84,4.0,SSW,9.2,-,0.04,Rain,Rain,200,2013-05-11 01:15:00
9:45 PM,60.8,59.0,94,29.84,3.0,SSW,15.0,24.2,0.12,Rain,Rain,210,2013-05-11 01:45:00
9:53 PM,60.1,59.0,96,29.84,2.0,WSW,6.9,23.0,0.16,Rain,Rain,240,2013-05-11 01:53:00
9:59 PM,60.8,59.0,94,29.84,2.0,Calm,Calm,-,0.03,Rain,Rain,0,2013-05-11 01:59:00
10:25 PM,60.8,59.0,94,29.84,1.5,SW,12.7,17.3,0.17,Rain,Heavy Rain,220,2013-05-11 02:25:00
10:31 PM,60.8,59.0,94,29.84,3.0,SW,16.1,23.0,0.17,Rain,Light Rain,220,2013-05-11 02:31:00
10:53 PM,60.1,59.0,96,29.83,7.0,SW,8.1,-,0.17,Rain,Light Rain,220,2013-05-11 02:53:00
11:04 PM,60.8,59.0,94,29.83,8.0,SW,8.1,-,0.00,Rain,Light Rain,220,2013-05-11 03:04:00
11:51 PM,60.8,59.0,94,29.82,6.0,SW,8.1,-,0.01,Rain,Light Rain,220,2013-05-11 03:51:00
11:53 PM,60.1,59.0,96,29.82,5.0,SW,8.1,-,0.01,Rain,Light Rain,220,2013-05-11 03:53:00